Theta_e
312 314 316 315 316 320 322 319 317 317 320 322 320 319 320 319 318 316 314 315 316 316 317 318 318 317 315 312 308 304 301 300 299 299 298 298 298 299 299 298 298 297
311 312 314 315 316 318 318 317 317 319 321 320 319 319 319 318 316 315 314 315 315 316 316 317 317 315 310 304 302 300 299 299 299 298 298 298 298 298 298 297 297 296
309 310 313 314 314 314 315 316 319 320 319 319 318 318 318 317 316 315 314 315 316 315 316 316 315 311 304 299 299 298 298 298 298 298 297 298 298 298 297 297 296 295
308 309 311 311 311 313 316 318 319 319 318 318 318 317 317 317 315 314 314 315 316 315 315 315 313 307 300 297 297 297 297 297 297 297 297 297 297 297 297 296 296 295
308 309 310 311 312 315 317 318 317 317 317 317 317 317 317 317 315 314 314 314 316 316 315 314 311 305 298 296 296 296 296 296 296 297 297 297 297 297 297 296 295 294
308 309 310 312 313 314 314 314 314 315 316 317 317 316 316 315 315 314 314 314 316 316 315 313 309 303 297 296 295 295 296 296 297 297 297 297 297 297 296 296 295 294
308 308 309 311 313 311 310 312 315 316 316 316 316 316 314 314 315 315 314 314 315 315 315 313 308 300 296 295 295 295 295 296 297 297 297 297 297 296 296 295 295 294
309 308 308 309 311 311 311 313 316 315 315 316 315 315 314 314 315 315 313 314 315 315 314 312 306 299 295 295 295 295 295 296 297 297 297 297 296 296 295 295 294 293
308 308 307 309 311 311 311 313 314 315 315 315 314 314 313 314 315 315 313 314 315 314 313 311 304 297 294 295 295 295 295 297 297 297 297 296 296 296 295 294 292 291
308 308 307 308 310 310 311 312 314 315 315 313 313 313 313 313 315 315 314 314 314 313 312 309 302 295 294 294 294 295 295 296 297 297 297 296 296 295 294 292 291 290
308 308 308 307 308 309 311 312 314 315 314 312 312 312 313 314 314 314 313 312 313 312 311 308 300 294 294 294 294 294 295 296 296 296 296 296 294 293 292 291 290 289
308 308 308 307 308 309 310 313 315 315 313 312 311 310 313 313 312 311 311 311 311 310 308 305 298 294 294 294 294 294 295 295 295 295 295 294 293 293 291 290 289 290
308 308 308 308 308 309 310 312 314 314 313 312 310 310 312 312 311 310 310 310 310 309 306 302 297 294 294 294 294 294 295 295 295 294 294 294 293 291 290 290 291 292
308 308 308 308 309 310 310 311 312 313 313 311 310 311 312 311 310 310 309 309 310 309 305 300 295 293 294 294 294 294 294 294 295 294 294 293 292 291 291 292 293 293
308 308 308 308 309 310 311 311 312 313 312 310 310 311 312 311 310 309 309 309 310 308 305 299 295 293 293 293 293 294 294 294 294 293 293 292 291 292 292 293 293 294
308 308 308 308 309 310 311 311 312 312 312 311 310 311 311 311 310 309 309 309 308 307 304 298 294 293 293 293 293 294 294 294 293 292 292 292 292 293 293 293 293 294
308 308 307 308 308 309 310 311 311 311 311 311 310 310 310 310 309 309 308 308 308 307 304 299 294 293 293 293 293 293 293 293 293 292 292 292 292 292 292 293 294 295
308 308 307 307 307 308 309 309 310 310 310 310 309 309 309 309 309 308 308 307 306 305 302 298 294 293 293 293 293 293 293 293 292 292 292 292 292 292 292 293 294 294
308 307 307 307 306 306 307 308 309 309 309 308 308 308 308 307 307 307 306 305 305 303 299 295 293 292 292 293 293 292 292 292 292 291 291 292 293 293 293 293 294 294
307 307 306 306 305 305 306 307 308 308 307 307 307 307 307 307 306 305 304 304 303 301 296 292 291 291 292 292 292 292 292 292 291 291 291 292 293 293 292 293 294 294
306 306 305 305 304 304 304 306 306 306 305 306 306 306 306 306 305 305 304 303 301 298 295 292 291 291 292 292 292 292 292 291 291 291 292 292 293 292 292 293 294 294
305 305 305 304 304 304 304 304 305 305 305 305 306 306 305 305 305 303 302 300 297 294 293 291 290 291 291 291 291 291 291 291 291 291 291 291 291 291 292 293 294 294
305 304 304 304 303 303 304 304 304 304 305 305 305 305 305 304 303 302 300 298 294 291 290 289 289 289 290 290 291 291 291 291 290 290 290 290 291 292 293 293 293 294
304 303 303 303 302 303 303 303 304 304 305 305 305 304 303 302 301 300 299 297 294 290 288 288 288 288 289 290 290 290 290 289 289 289 289 290 291 292 293 292 292 293
302 302 302 302 301 302 302 303 303 303 303 303 303 302 301 299 298 298 297 296 294 291 288 287 287 287 288 288 288 288 288 288 288 289 289 290 292 292 292 291 292 293
301 300 301 301 301 301 301 302 302 302 302 301 300 299 298 297 297 296 296 295 295 293 291 288 287 287 287 287 287 288 288 288 289 289 290 291 292 292 291 291 292 293
Wind_Speed
38 38 39 38 36 36 36 34 31 33 35 36 34 33 33 30 27 28 29 33 36 36 37 36 34 32 32 34 34 34 35 35 33 31 29 27 25 24 22 21 19 19
39 39 38 37 36 37 37 34 33 33 33 33 32 31 30 27 24 25 27 32 37 37 37 37 34 32 33 35 35 35 36 35 33 31 29 28 26 24 22 21 20 19
38 39 39 38 38 37 35 33 34 33 31 31 31 29 28 26 23 23 25 31 36 37 38 37 33 32 33 34 35 36 36 35 33 32 30 28 26 24 22 21 20 19
37 37 37 37 37 36 35 34 35 34 31 32 31 28 27 27 24 23 25 31 37 38 39 37 33 33 34 34 35 36 36 34 33 32 31 29 26 24 23 21 19 18
35 35 35 35 34 34 35 35 35 34 33 33 32 29 27 26 25 24 25 32 38 39 39 36 33 34 35 35 36 36 35 34 33 32 30 29 26 24 23 20 19 18
32 33 33 33 33 33 34 35 35 35 34 33 32 28 25 25 26 25 26 32 38 40 38 36 34 35 36 36 36 36 35 35 33 32 31 28 26 23 22 20 19 17
30 30 32 33 35 34 34 34 35 34 33 32 30 27 24 26 28 27 26 31 38 40 38 36 36 37 37 37 37 36 36 35 34 32 30 28 25 23 21 19 18 16
28 28 30 32 34 34 33 34 34 33 32 30 28 26 25 27 30 29 27 30 37 39 37 36 38 38 38 38 38 37 37 36 34 32 30 28 25 22 20 19 16 15
27 27 29 30 32 32 33 34 34 33 31 29 26 26 26 28 31 32 29 30 35 37 36 37 39 39 39 38 38 37 37 36 34 32 29 28 25 21 19 17 15 13
27 27 28 30 31 31 32 32 33 33 29 26 25 27 29 30 32 34 31 29 33 36 35 38 41 40 39 38 38 38 37 36 34 32 29 26 23 20 17 15 13 11
27 28 29 30 30 31 31 31 32 31 28 24 25 27 29 28 30 32 30 29 32 35 37 39 41 41 39 38 38 38 38 36 33 31 28 25 22 19 16 14 12 10
28 29 29 30 30 31 31 30 31 31 27 24 25 27 28 28 27 27 27 28 30 33 37 41 42 41 40 39 39 39 38 36 33 30 27 23 21 18 16 14 12 11
29 29 29 29 29 30 30 30 31 31 28 26 27 28 29 29 27 27 28 30 30 32 37 42 43 41 40 39 39 39 39 36 33 30 26 23 21 18 16 14 13 13
28 29 29 30 29 29 30 30 31 31 29 27 28 29 31 30 27 26 28 29 29 31 36 42 43 42 41 40 40 39 38 35 33 30 27 24 21 18 16 15 15 17
27 28 29 30 30 30 30 31 31 32 30 28 27 28 30 31 29 28 28 28 30 32 37 43 44 43 41 40 39 39 38 36 33 30 27 24 21 19 18 18 18 19
26 27 28 31 32 32 31 31 31 31 31 30 28 28 30 31 31 29 28 29 31 33 38 43 44 42 40 39 39 39 39 37 33 29 26 23 22 21 21 20 20 21
26 28 28 30 33 32 31 32 31 30 29 29 29 29 31 34 33 31 30 31 32 33 37 41 44 43 41 40 40 39 38 35 32 29 27 25 24 24 23 22 21 23
27 28 28 28 31 32 31 31 31 29 27 27 29 30 30 33 34 33 32 32 32 33 37 42 45 44 42 41 40 39 36 33 31 29 28 26 26 26 25 24 24 24
27 28 28 27 28 29 30 31 31 29 27 27 30 30 29 29 32 33 33 32 32 34 38 43 45 44 42 41 39 37 35 33 31 30 28 27 27 27 27 26 25 25
28 28 29 27 25 26 28 30 30 28 27 28 30 29 27 26 28 29 30 30 30 32 37 42 44 43 41 40 38 36 35 33 31 30 29 29 29 29 29 27 26 27
28 28 28 27 25 25 26 27 28 26 27 28 29 27 25 24 25 26 26 26 28 30 34 38 41 41 40 40 38 37 35 33 33 32 32 31 31 31 30 28 27 30
28 28 28 27 26 25 24 25 25 25 26 26 26 24 23 23 24 25 24 24 26 29 32 35 39 41 41 40 38 37 36 36 35 34 33 32 32 31 30 29 30 31
26 26 26 26 25 25 24 23 23 24 25 25 24 23 21 22 25 25 25 24 25 28 31 35 37 39 39 39 38 39 39 37 35 34 33 32 31 30 31 31 31 32
22 23 24 24 24 24 24 23 22 23 25 25 24 22 21 21 23 23 23 23 23 25 28 32 35 37 38 39 39 39 37 35 33 32 32 31 31 32 33 32 33 34
20 21 21 21 22 22 22 22 22 22 23 23 23 21 19 19 20 20 20 20 21 23 26 29 31 33 34 35 34 34 33 32 31 31 31 32 33 34 34 33 34 35
17 18 18 18 19 19 20 21 21 21 20 19 18 16 15 15 14 13 13 14 15 19 23 27 28 29 29 29 29 30 30 30 31 32 34 36 36 36 35 34 36 37
Wind_Direction
228 226 226 227 225 226 229 232 235 237 234 233 238 245 247 246 251 260 251 233 226 219 214 217 220 220 217 212 210 208 207 207 205 205 206 206 207 208 211 214 219 226
230 229 228 227 225 225 227 230 234 234 231 235 243 246 245 244 251 260 251 232 224 218 216 219 218 215 213 209 208 207 206 205 205 205 206 207 207 208 211 215 219 226
231 230 228 227 227 225 226 230 233 232 230 235 242 243 241 241 245 252 248 232 221 217 218 219 215 212 209 208 208 208 206 205 205 205 206 207 208 209 211 215 219 225
233 232 229 228 228 226 228 232 233 233 235 237 241 242 239 236 237 243 244 229 217 216 219 218 213 210 209 210 211 208 206 206 206 206 206 207 208 210 212 215 218 224
235 232 229 228 227 227 230 232 232 234 237 237 240 241 235 234 236 240 240 227 217 217 220 217 213 211 211 212 211 209 207 206 206 207 207 208 209 210 213 215 219 224
236 233 230 229 229 230 230 230 231 234 235 236 239 238 233 234 236 237 237 228 220 220 221 217 213 212 212 213 211 209 208 207 206 207 207 208 210 212 214 216 220 224
237 234 231 228 229 230 229 229 231 234 236 237 234 232 232 233 231 231 233 229 223 222 221 218 215 213 212 213 211 209 208 207 207 207 208 208 211 213 215 218 221 225
239 237 234 230 229 228 227 227 228 231 235 233 228 230 236 235 229 226 228 231 229 224 221 219 216 214 214 214 212 210 208 207 207 208 209 209 211 213 215 218 223 227
242 239 236 231 228 227 226 225 227 232 233 228 227 233 238 238 231 223 224 233 232 226 223 221 217 215 216 215 213 211 209 208 208 209 210 211 212 214 215 218 223 227
244 238 234 231 228 228 226 225 230 233 228 225 229 232 237 239 232 223 224 232 233 229 226 223 218 216 217 216 215 213 210 210 210 210 211 211 211 214 215 217 220 222
243 237 233 230 228 226 225 227 232 229 222 226 232 234 238 237 229 224 227 233 235 233 229 224 218 217 218 218 216 214 212 212 213 213 212 211 210 211 212 213 213 211
243 237 233 231 227 223 223 228 231 226 225 232 237 239 236 227 221 224 231 237 240 236 230 223 219 218 219 219 217 216 214 213 213 213 212 211 210 209 210 208 205 209
245 240 235 232 228 224 222 225 228 229 230 235 240 242 233 221 220 226 231 237 241 238 231 223 219 219 220 219 219 217 216 215 214 214 213 211 209 208 207 206 210 222
247 243 237 233 229 226 224 226 229 229 228 231 241 243 229 217 220 227 229 234 240 239 232 224 220 221 221 220 219 218 218 218 217 216 215 211 208 206 209 214 223 232
249 245 239 232 229 227 227 228 231 230 226 227 238 240 227 219 225 231 232 235 239 238 231 225 222 222 222 222 221 220 220 220 220 218 215 211 211 214 219 225 231 240
249 245 239 231 227 225 227 229 233 234 229 227 233 237 231 227 230 234 236 238 239 236 230 226 224 224 224 224 224 223 223 222 220 218 215 216 220 223 227 232 241 250
247 244 239 232 226 225 226 230 234 235 231 229 234 239 238 234 232 234 237 240 240 236 231 228 227 225 225 224 224 224 224 224 223 221 221 223 226 228 232 241 253 258
245 244 241 234 227 225 226 229 234 236 233 232 237 244 244 240 237 236 238 239 239 235 231 228 228 227 226 226 225 224 224 225 225 225 225 226 229 234 239 248 259 260
244 243 242 237 229 226 227 229 232 236 237 237 240 245 246 242 240 240 240 240 239 235 231 228 227 226 225 226 226 225 225 226 226 226 228 231 238 243 245 251 260 263
242 241 240 237 231 228 228 229 232 237 239 241 243 246 247 244 241 240 240 241 240 237 233 229 226 224 225 226 227 227 227 228 228 229 233 239 246 247 247 253 265 270
239 239 238 235 231 229 227 228 232 236 238 239 243 248 251 245 240 239 241 242 240 238 235 230 226 225 225 227 227 228 229 230 232 234 237 242 244 244 247 257 270 275
238 238 237 233 230 228 227 227 229 232 234 237 242 248 249 244 239 239 241 240 238 236 233 229 226 224 224 226 227 228 229 230 232 234 237 238 239 245 254 262 271 277
237 237 236 233 229 227 227 227 228 231 235 238 241 244 244 241 240 240 239 237 236 234 231 227 223 222 223 223 225 226 228 229 231 232 234 236 241 254 262 264 271 278
235 235 234 232 227 225 226 226 229 234 239 241 242 244 244 244 244 243 241 237 233 232 231 228 224 222 222 223 224 226 227 228 229 231 234 240 251 262 264 264 272 279
228 230 230 228 225 224 224 226 230 237 243 244 243 244 246 248 247 245 243 240 234 229 227 227 226 225 225 225 226 227 228 229 230 233 239 249 260 266 264 264 273 280
214 217 219 219 219 220 221 224 230 237 243 244 242 243 245 246 245 243 240 239 236 230 225 224 225 227 228 229 229 230 232 233 236 239 246 254 263 266 265 265 273 279